Home > Weather > Constanța > Past weeks

Flag for Romania Weather for the Past 2 Weeks in Constanța, Romania

Now
60 °F

Partly sunny.


Feels Like: 60 °F
Forecast: 51 / 63 °F
Wind: 2 mph from Southwest

Location: Constanta

Current Time: Feb 14, 2016 at 12:27:39 PM

Latest Report: Feb 14, 2016 at 11:00 AM


Visibility: 6 mi

Pressure: 29.67 "Hg

Humidity: 46%

Dew point: 40 °F

Location of ConstanțaLocation

Historic Weather in Constanța — Graph

°F

Constanța Temperature Yesterday

Maximum temperature yesterday: 54 °F (at 2:00 PM)
Minimum temperature yesterday: 44 °F (at 6:00 AM)
Average temperature yesterday: 50 °F

High & Low Weather Summary for the Past Weeks

 TemperatureHumidityPressure
High66 °F (Feb 3, 1:00 PM)100% (Feb 13, 6:00 AM)30.45 "Hg (Feb 13, 6:00 AM)
Low29 °F (Feb 7, 8:00 AM)46% (Feb 3, 2:00 PM)29.47 "Hg (Feb 13, 9:00 PM)
Average45 °F77%30.04 "Hg
* Reported Jan 30 12:00 Noon — Feb 14 11:00 AM, Constanța, Weather by CustomWeather, © 2016

Note: Actual official high and low records may vary slightly from our data, if they occured in-between our weather recording intervals... More about our weather records

Advertising

Constanța Weather History for the Previous 24 Hours

 ConditionsComfort  
Time TempWeatherWind HumidityBarometerVisibility
11:00 AM
Sun, Feb 14
60 °FPartly sunny.2 mph46%29.67 "Hg6 mi
10:00 AM54 °FOvercast.3 mph60%29.66 "Hg6 mi
9:00 AM50 °FPartly sunny.3 mph67%29.64 "Hg6 mi
8:00 AM49 °FScattered clouds.3 mph69%29.63 "Hg6 mi
7:00 AM47 °FPassing clouds.5 mph78%29.62 "Hg6 mi
6:00 AM46 °FClear.3 mph79%29.60 "Hg6 mi
5:00 AM46 °FClear.5 mph80%29.58 "Hg6 mi
4:00 AM47 °FClear.5 mph82%29.56 "Hg6 mi
3:00 AM49 °FPassing clouds.6 mph82%29.56 "Hg6 mi
2:00 AM50 °FPassing clouds.5 mph83%29.54 "Hg6 mi
11:00 PM
Sat, Feb 13
54 °FLight rain. Overcast.2 mph88%29.47 "Hg6 mi
10:00 PM53 °FOvercast.2 mph89%29.47 "Hg6 mi
9:00 PM50 °FOvercast.2 mph91%29.47 "Hg6 mi
8:00 PM50 °FPassing clouds.2 mph93%29.50 "Hg6 mi
7:00 PM51 °FOvercast.2 mph92%29.50 "Hg6 mi
6:00 PM51 °FOvercast.1 mph93%29.53 "Hg6 mi
5:00 PM51 °FOvercast.2 mph91%29.55 "Hg6 mi
4:00 PM53 °FPartly sunny.1 mph88%29.57 "Hg6 mi
3:00 PM54 °FOvercast.1 mph89%29.59 "Hg6 mi
2:00 PM54 °FPartly sunny.2 mph92%29.60 "Hg6 mi
1:00 PM52 °FFog.1 mph100%29.63 "Hg1 mi
12:00 PM47 °FFog.1 mph100%29.64 "Hg1 mi
Weather by CustomWeather, © 2016

See weather overviewHow to use our weather pages